Location: Altleiningen
(49.5078°N, 8.0741°E)
Time: 22:56:40
(UTC+00:00)

Cosmos 2333 Rocket - Pass Details

Date: 03 March 2021
Orbit: 837 x 864 km, 70.8° (Epoch: 13 April)

Event Time Altitude Azimuth Distance (km) Brightness Sun altitude
Rises 18:47:39 0° 180° (S) 3,388 5.3 -16.0°
Reaches altitude 10° 18:50:13 10° 173° (S) 2,461 4.4 -16.4°
Maximum altitude 18:55:22 37° 107° (ESE) 1,296 2.6 -17.2°
Drops below altitude 10° 19:00:34 10° 42° (NE) 2,494 4.4 -18.0°
Sets 19:03:11 0° 35° (NE) 3,439 5.2 -18.5°
